STARLINK-4402, 53509

Orbit data source: Space-Track

STARLINK-4402, 53509 is a payload satellite owned by SpaceX/Seattle (US) in SSO that was launched on Fri, 12 Aug 2022 UTC via an FALCON 9 launch vehicle from the Air Force Western Test Range (AFWTR). Payload-class satellites include a variety of spacecraft equipped with specific instruments for various scientific and technological missions. These include communications satellites like Starlink; space stations such as the ISS; scientific satellites like the Hubble; Earth observation satellites from companies like Planet Labs, Umbra, and HawkEye 360; GPS; miniature CubeSats for education and research; and military/defense satellites.

Loading next visibility...
Identifier
53509, 2022-099AW
Orbit
SSO
Country
Flag of USUS
Related business
Manufacturer
SpaceX/Seattle
Mission
Operational Commercial Communications
Bus & Motor
STARLINK, Unknown motor
Mass
300 kg wet, ~275 kg dry
Launch date (UTC)
2022-08-12 (3 years ago)
Launch vehicle
FALCON 9
Launch site
Air Force Western Test Range (AFWTR)
Object type
Payload
Rocket body
Debris
Shape & HBR
Box + 1 Pan, 10.1 m
Radar Cross Section
13.562 m², Large (>1 m²)

Expand to show TLE details & history
Last TLE update: 13 hours ago

TLE from 13 hours ago
0 STARLINK-4402
1 53509U 22099AW  25293.29297434 -.00000141  00000-0 -64287-5 0  9995
2 53509  97.6053  52.7622 0001625 251.8112 108.2936 15.01258497174926
Epoch: 2025-10-20T07:01Z
TLE epoch observation values (Epoch: 2025-10-20T07:01:52.982Z)
Latitude
-0.00001°
Longitude
-81.70593°
Altitude
566.428 km
Speed
7.578 km/s
True Right ascension
03h 31m 02s
True Declination
0° 00' 00"
Sunlit
Object was in full shadow at epoch
Visualization orbit readout
Latitude
Unknown
Longitude
Unknown
Altitude
Unknown
Speed
Unknown
Apparent Right ascension
Unknown
Apparent Declination
Unknown
Sunlit
N/A
Visualization observer readout
Local Sidereal Time
15:08:55
Azimuth
Unknown
Elevation
Unknown
Doppler factor
Unknown
Orbital elements
Apogee altitude
561.141 km
Perigee altitude
558.886 km
Semi-major axis
6,938.151 km
Eccentricity
0.00016
Inclination
97.6053°
RAAN
52.7622°
Arg. of periapsis
251.8112°
True anomaly
108.31128°
Mean anomaly
108.2936°
Eccentric anomaly
108.30244°
Mean motion
3.75558 °/min
Orbital period
95.86 mins
BSTAR
-0.0000064287
Loading maneuver chart data...
Computing Atmospheric mass density...
Loading historical data...
Loading historical data...
Loading historical data...
Loading historical data...
Loading historical data...
Loading historical data...
Loading historical data...

Documentation

Showing up to 5 results
|